GFSMA_2pvu_pres_000.txt.gz
Presure
141 154 152 156 153 149 138 136 150 151 148 145 156 144 172 173 193 178 177 174 175 177 162 170 183 187 146 126 175 184 182 176 163 183 184 181 184 195 185 198 204 202 199
152 156 159 144 139 145 148 143 153 157 161 161 178 177 175 182 181 170 161 181 179 185 181 175 180 158 165 138 184 183 191 191 179 189 191 192 187 192 198 202 211 201 197
144 141 148 149 148 150 153 153 147 156 167 175 179 181 184 189 139 184 186 188 190 191 177 178 186 190 134 147 202 203 197 193 194 193 190 193 200 194 199 198 193 200 217
148 147 149 153 149 150 147 142 148 176 169 175 173 189 192 167 163 181 186 181 175 182 188 206 175 175 215 191 192 208 191 202 203 199 196 189 205 196 200 195 206 206 213
150 146 145 150 158 157 167 179 180 160 163 168 171 162 164 169 193 162 173 141 183 183 218 114 155 130 193 194 200 211 204 201 210 206 212 203 199 195 187 201 203 195 196
146 149 147 151 178 167 176 189 174 179 190 157 147 162 182 174 185 109 205 199 213 176 90 163 213 183 201 179 205 211 197 218 205 196 185 209 204 205 183 205 202 191 202
148 145 187 176 164 149 159 170 194 163 187 162 181 115 83 134 185 201 145 224 184 199 193 203 183 169 196 210 207 198 216 194 194 223 217 203 198 188 217 206 202 211 218
145 150 163 153 157 174 179 190 174 172 107 126 195 194 188 162 145 209 154 192 173 208 174 180 177 198 194 160 194 206 186 250 224 214 205 222 225 212 211 183 213 195 209
144 176 181 172 183 166 184 182 202 187 132 121 182 201 188 166 223 203 174 184 135 133 202 195 188 202 209 197 194 196 273 244 236 199 230 207 220 205 195 207 195 200 216
183 174 168 146 157 169 167 166 167 113 137 197 138 143 207 125 227 176 143 178 187 195 180 199 209 198 209 170 160 236 284 252 241 201 208 228 217 207 224 210 199 196 215
163 177 178 148 170 146 182 122 174 180 178 238 242 171 134 165 200 184 178 170 185 167 181 192 190 199 211 163 208 304 285 262 237 219 229 210 215 208 221 213 201 219 215
165 161 186 187 191 175 193 168 180 196 184 76 107 99 193 204 174 162 171 181 183 182 178 205 172 199 206 210 228 307 222 254 250 219 215 227 211 232 214 212 225 217 212
145 99 171 160 170 176 186 191 168 183 231 79 189 185 162 126 185 169 184 189 184 195 207 186 199 194 206 207 205 305 280 257 247 225 207 206 219 219 218 227 208 208 214
185 171 133 122 182 87 194 190 195 168 205 170 80 95 127 196 190 184 154 191 174 187 199 184 202 194 200 214 207 318 277 256 242 223 220 212 233 234 221 223 211 207 205
167 186 105 165 185 185 183 187 169 241 153 178 199 200 129 200 184 156 185 193 183 205 179 200 183 207 194 194 204 290 269 256 236 254 228 225 223 226 226 211 213 215 228
187 109 194 170 150 135 199 197 214 233 184 189 197 174 193 179 175 190 195 183 192 197 195 184 201 172 199 204 214 206 273 256 235 241 237 239 220 223 215 215 217 217 213
197 168 187 183 188 197 183 164 181 73 70 154 192 189 186 190 197 183 184 190 191 199 198 180 154 189 187 202 219 215 269 259 239 228 219 228 227 225 226 223 218 207 225
174 204 204 187 100 205 173 162 240 214 171 197 205 194 170 180 180 185 191 195 196 188 192 177 203 205 202 198 238 203 263 252 242 230 220 219 225 217 223 235 223 230 229
204 201 177 190 204 144 183 210 253 148 186 190 171 195 201 189 191 192 181 189 175 180 185 205 206 213 197 199 264 242 258 237 244 229 220 234 221 223 228 217 224 212 225
201 203 176 218 109 211 229 242 175 197 187 164 193 185 197 180 192 200 182 174 191 203 209 216 201 206 205 183 220 261 257 245 243 228 221 225 210 222 228 228 222 223 231
202 214 278 219 209 221 184 207 211 191 198 173 205 201 180 179 197 170 196 204 199 213 222 220 219 227 213 203 273 260 250 246 239 230 218 221 222 220 226 225 215 228 218
238 216 207 208 212 204 202 204 201 178 194 200 212 200 205 205 205 202 187 144 215 215 217 244 213 286 201 288 275 225 248 238 231 231 228 212 218 228 227 219 215 217 217
185 169 214 206 181 187 168 182 212 200 201 214 220 215 214 196 212 209 221 231 225 213 197 201 216 213 305 285 261 255 245 236 232 228 232 225 225 223 220 220 222 218 229
190 184 185 194 211 154 212 199 220 207 197 202 188 200 185 213 217 259 225 218 216 208 218 271 297 341 305 283 224 246 239 237 223 227 215 222 227 219 214 225 218 228 223
198 199 185 200 200 208 213 233 233 267 174 189 250 240 252 255 241 242 247 221 225 333 319 307 344 328 298 229 259 242 236 235 224 217 217 216 228 226 215 225 218 222 228
277 210 248 232 352 189 360 374 228 257 332 286 295 271 284 361 368 343 353 346 340 324 394 350 333 316 224 260 258 244 237 224 223 217 217 222 227 222 230 225 217 231 232

GFSMA_2pvu_pres_006.txt.gz
Presure
185 144 177 166 140 145 147 136 135 146 150 148 146 143 149 166 167 175 180 186 178 177 183 181 162 151 200 233 234 187 213 129 195 132 200 194 198 192 172 211 176 198 237
180 117 147 150 155 149 137 143 151 143 142 138 142 146 153 174 168 175 157 169 171 192 175 190 188 194 216 229 224 195 184 194 193 205 192 164 166 170 204 176 182 193 200
154 160 155 134 105 140 147 151 147 141 142 142 183 145 162 180 172 137 159 146 190 178 158 177 188 243 232 227 163 199 203 193 188 178 200 207 192 201 203 169 216 205 292
145 111 144 151 153 153 149 142 144 138 180 166 140 161 180 167 169 181 186 191 173 157 180 175 189 253 163 207 201 199 148 203 181 207 204 160 172 162 186 198 205 194 212
151 156 158 153 155 148 153 144 145 177 164 151 180 180 172 161 180 175 179 179 178 173 190 185 190 176 172 184 201 196 196 202 187 180 186 195 185 193 187 185 183 198 206
155 152 148 149 153 135 151 154 160 167 171 163 166 170 161 166 138 141 136 159 155 180 191 181 193 213 179 161 191 195 177 160 189 188 204 202 182 201 196 198 183 205 204
147 145 159 152 135 152 166 164 161 171 175 158 159 170 163 78 188 171 174 193 151 146 179 194 176 199 176 178 186 163 205 188 182 198 171 190 202 182 210 214 185 205 196
160 164 159 144 150 161 171 145 163 158 172 171 150 151 158 158 152 183 193 194 154 193 183 183 154 171 197 220 192 188 192 185 190 193 184 184 186 179 180 208 213 222 204
135 161 147 165 179 153 159 157 177 160 119 170 163 168 166 183 164 173 165 198 198 184 135 113 202 185 194 232 180 171 188 184 196 190 196 182 184 196 203 198 220 213 187
154 167 152 175 157 132 165 150 170 158 177 143 94 155 104 172 169 204 179 193 181 183 184 198 199 190 198 210 218 201 200 175 177 186 185 190 175 175 203 213 214 215 216
108 149 130 169 169 155 167 145 164 172 161 174 146 187 186 168 184 209 197 151 203 183 164 92 194 213 206 234 234 199 201 208 176 188 186 181 188 189 207 204 207 218 222
156 176 169 173 166 165 177 172 178 153 123 106 119 182 171 173 109 65 194 193 189 197 204 205 189 227 178 235 216 172 186 178 163 172 179 171 172 188 197 202 211 208 199
160 168 169 157 177 126 167 180 182 167 78 189 124 171 172 190 65 82 152 187 211 209 201 206 235 249 235 241 187 189 186 192 184 167 190 154 168 169 200 205 210 222 192
172 161 170 166 167 170 187 178 166 186 192 191 174 176 193 197 183 185 141 186 211 183 161 143 207 236 170 234 224 176 183 179 174 188 195 185 163 174 199 202 214 218 196
159 169 173 175 177 181 173 181 189 190 177 169 185 198 191 179 211 204 170 208 202 174 207 141 163 159 162 185 178 179 179 186 176 186 190 199 162 172 196 209 221 225 204
177 175 178 185 174 174 191 184 185 185 184 196 169 180 194 183 128 210 201 208 167 197 207 203 204 192 192 174 197 151 184 169 172 197 203 186 201 176 212 220 222 209 207
177 187 180 178 183 194 203 202 183 205 189 169 217 192 151 163 177 196 155 156 227 199 189 208 193 196 188 192 202 179 188 174 174 188 191 185 176 201 220 234 238 217 206
139 172 192 156 200 189 161 213 205 163 208 158 143 142 151 205 163 161 207 225 162 224 226 178 174 162 169 188 189 176 165 187 200 199 180 185 208 218 237 220 224 264 217
181 193 122 148 188 155 183 152 155 241 227 184 156 160 166 154 236 171 187 217 170 189 207 172 209 176 196 199 169 174 193 195 178 211 203 222 213 235 245 194 268 221 226
147 149 152 136 180 167 196 180 157 161 169 182 228 199 193 251 343 179 218 284 169 212 316 295 231 230 169 204 188 169 189 288 250 233 211 239 235 259 230 280 213 214 240
139 144 148 185 147 214 216 179 370 190 158 258 275 309 313 241 246 241 248 309 243 206 339 257 258 323 332 364 329 264 250 320 316 319 270 270 270 227 264 250 237 215 254
132 159 211 198 235 199 164 260 212 370 365 266 264 237 256 404 394 379 176 368 368 407 349 386 385 389 211 369 275 199 195 247 198 199 322 292 224 229 260 269 246 241 246
147 238 134 245 406 444 292 381 241 377 341 430 420 350 411 395 383 378 369 324 353 337 365 349 328 201 339 366 359 372 356 369 336 259 260 235 281 279 262 252 241 247 254
226 310 274 325 242 240 313 360 398 404 409 410 411 409 414 414 403 348 393 359 332 375 359 375 331 347 385 373 379 291 393 277 364 279 354 302 271 269 252 262 239 257 246
320 416 380 379 319 302 323 398 401 406 408 408 406 388 349 344 324 331 280 334 385 386 379 371 369 368 362 356 357 364 377 369 357 339 343 307 291 266 257 238 241 249 248
404 406 400 396 394 393 393 392 388 389 380 330 326 327 325 326 341 334 341 407 403 391 383 375 374 374 370 372 305 358 354 344 337 339 311 307 294 271 247 242 246 253 252

GFSMA_2pvu_pres_009.txt.gz
Presure
169 128 173 143 172 144 146 149 156 131 147 141 143 139 150 144 144 160 164 153 170 167 178 186 179 172 170 118 191 172 190 218 182 176 202 167 199 198 177 189 168 177 189
176 183 181 130 156 161 149 148 142 151 149 151 153 148 147 169 178 163 184 161 171 162 191 152 138 155 168 183 164 187 170 196 184 167 172 206 186 178 181 205 168 172 165
152 161 99 168 139 144 140 148 157 154 159 152 147 154 134 169 165 159 161 171 176 177 174 194 170 186 180 185 184 169 188 199 186 167 168 188 191 193 184 182 176 196 183
95 156 154 146 148 156 160 154 159 151 162 145 154 161 144 169 170 159 158 176 180 156 174 176 151 157 195 190 193 183 179 176 180 197 216 212 193 190 175 177 189 174 183
93 154 155 157 159 149 157 161 167 166 136 150 151 172 150 173 155 168 158 155 164 130 160 152 191 193 191 183 199 184 191 193 194 166 178 223 195 190 185 190 186 196 182
160 160 157 150 142 160 166 160 150 149 165 166 154 163 153 157 148 150 175 158 171 187 171 164 184 182 180 179 192 195 182 197 195 189 205 187 209 186 189 186 192 197 181
160 157 161 148 150 131 126 137 161 117 163 166 169 166 164 144 165 180 164 152 180 186 169 159 182 172 182 180 191 182 193 198 193 171 212 199 228 204 178 188 188 190 175
152 153 139 124 128 139 104 147 126 133 162 172 156 163 170 144 173 176 141 114 104 165 164 165 182 171 189 184 190 186 196 191 204 208 225 242 216 227 202 172 196 181 181
141 135 148 129 154 149 155 168 157 165 171 166 154 167 165 173 181 163 159 183 182 67 168 162 189 197 188 192 200 186 199 197 205 206 241 238 178 186 200 175 177 194 200
142 173 158 148 153 155 169 108 176 177 161 158 167 163 155 180 175 161 173 176 73 83 176 188 197 177 197 201 186 202 202 190 203 201 269 168 190 173 173 177 177 188 183
162 158 167 176 181 165 160 170 165 164 164 153 168 166 188 171 167 189 179 170 152 61 190 194 170 199 177 179 193 195 202 177 204 256 206 172 163 240 170 166 186 180 186
132 158 162 151 149 165 179 177 156 165 170 171 181 176 168 179 187 186 176 194 170 183 188 164 197 200 185 203 193 195 172 162 176 162 168 172 186 173 168 180 171 167 189
154 160 155 157 183 171 170 163 154 169 173 189 187 177 178 184 174 193 193 205 183 160 202 162 198 187 206 194 197 179 176 178 170 173 219 175 172 202 173 176 171 172 163
149 150 180 178 142 169 176 158 169 175 183 181 179 181 168 189 197 183 200 197 213 209 162 162 216 160 169 183 187 199 164 168 165 176 213 206 181 176 184 181 173 174 187
181 176 172 182 173 171 165 188 178 182 149 182 189 190 174 156 137 213 208 207 201 192 221 199 191 215 215 157 156 190 157 167 192 190 190 208 169 197 186 186 183 182 185
180 176 168 175 176 178 188 187 169 181 176 173 146 129 157 152 144 219 198 219 172 194 183 237 146 150 217 229 193 181 178 201 213 206 178 177 186 184 187 193 187 178 199
167 163 165 184 193 198 207 197 117 144 173 215 154 155 182 161 143 156 157 155 177 210 170 198 169 160 158 235 181 173 257 229 242 204 218 213 187 194 207 169 179 198 181
189 192 195 196 202 120 149 177 206 187 140 180 133 149 157 280 150 275 208 200 166 168 232 274 279 161 277 244 177 264 172 306 263 263 210 266 186 180 201 183 205 207 211
193 148 183 187 140 156 134 152 138 225 146 150 158 146 179 236 218 253 172 216 243 295 361 252 342 334 295 204 368 324 318 221 361 343 340 332 274 255 220 262 213 206 231
170 206 141 218 134 222 153 154 159 186 159 189 151 206 323 392 423 414 341 322 372 325 363 362 356 363 345 335 361 383 373 363 363 348 341 343 330 266 279 300 245 238 241
140 127 142 139 139 140 171 131 212 181 161 358 411 399 402 397 332 318 374 373 406 409 364 341 382 419 389 406 386 368 381 344 370 286 367 334 281 373 354 293 308 293 275
164 145 132 135 141 150 208 286 412 416 405 408 408 405 336 357 397 400 398 398 402 404 403 406 408 407 405 398 354 374 360 364 352 366 368 347 365 202 203 336 258 268 289
134 128 186 149 289 343 204 407 402 402 403 398 399 401 398 394 389 391 392 396 401 402 407 407 409 385 399 393 382 337 314 333 338 343 317 356 347 288 325 312 302 291 278
224 152 210 247 413 413 402 399 398 398 402 402 405 399 392 390 388 354 404 373 369 324 321 322 330 327 317 315 310 353 388 382 381 371 339 385 371 376 278 296 299 284 275
161 221 331 429 417 405 398 395 400 401 397 393 389 388 381 345 293 290 372 389 392 397 400 392 397 398 370 389 378 377 376 369 367 363 357 358 370 368 334 339 294 278 284
314 435 426 413 396 390 390 386 382 384 385 377 370 365 359 362 371 378 376 371 375 381 366 392 393 349 393 388 383 350 377 385 377 363 332 350 355 353 331 304 288 288 274

GFSMA_2pvu_pres_012.txt.gz
Presure
200 186 192 181 176 139 124 167 156 161 164 162 152 144 149 153 156 159 152 168 155 151 170 169 178 167 190 189 156 162 152 187 164 182 191 184 183 187 190 180 188 193 183
191 190 106 87 138 157 113 169 153 148 151 149 154 162 159 160 152 149 152 150 153 168 170 153 154 154 171 186 183 169 159 152 178 169 174 191 176 166 173 190 179 202 207
151 94 119 99 98 163 157 154 154 154 161 162 153 169 152 152 154 144 169 159 165 162 152 171 167 171 80 153 144 168 159 182 170 182 189 180 177 190 196 186 169 210 210
146 163 165 157 153 154 157 159 161 160 141 164 155 152 126 150 156 168 160 171 166 170 171 155 173 168 161 182 183 169 162 162 176 175 183 191 183 196 188 197 183 207 200
151 155 160 160 163 165 166 167 157 130 142 110 116 130 139 160 163 139 169 162 161 166 159 167 181 168 170 165 185 168 162 180 177 185 180 194 187 195 185 195 190 204 232
158 156 163 155 150 162 153 154 159 140 134 148 152 153 176 151 172 159 171 163 163 155 162 171 156 165 96 174 181 165 173 190 188 181 190 194 186 191 197 188 210 204 246
159 152 162 158 136 166 169 154 163 142 164 163 169 166 152 168 179 168 167 159 154 154 155 145 168 102 184 177 187 163 183 189 188 174 190 185 189 199 184 191 210 214 250
138 155 158 142 169 134 139 174 162 142 163 168 164 167 157 166 170 168 163 165 155 182 182 162 91 99 126 106 193 164 191 195 172 194 192 199 183 201 171 194 188 221 226
145 131 167 173 155 139 135 156 173 156 152 150 156 184 170 174 158 148 159 163 177 187 173 177 123 65 182 186 180 175 197 187 181 195 201 192 188 217 198 190 197 197 193
144 133 134 155 145 176 169 166 162 168 155 151 142 180 175 176 170 152 156 171 177 180 167 179 178 98 182 189 187 198 187 185 207 196 203 177 163 196 181 209 207 196 182
175 182 161 141 168 174 168 147 152 153 169 160 179 176 158 172 193 186 188 181 183 175 177 184 130 64 194 197 202 191 172 206 212 197 201 178 178 162 176 175 201 165 203
157 163 148 165 158 142 159 165 181 179 180 175 171 174 175 172 182 190 181 162 197 185 192 160 192 190 195 201 204 207 207 185 205 166 152 185 213 202 195 175 180 169 179
161 174 154 173 176 175 160 169 167 172 176 179 132 187 191 187 189 191 176 129 133 206 161 151 131 128 127 165 206 151 168 154 203 167 222 207 185 215 169 199 157 153 150
140 177 143 156 157 169 164 169 172 194 183 186 194 187 162 192 195 158 172 180 142 154 152 139 140 162 206 159 178 162 220 162 169 172 214 231 210 166 200 222 160 179 164
157 147 175 172 158 165 192 184 140 188 192 189 186 211 199 132 139 225 143 215 151 164 246 143 164 237 159 158 155 154 179 245 167 236 248 247 196 242 181 242 196 178 200
189 158 157 175 181 183 192 185 192 167 217 170 237 161 139 144 149 140 149 139 158 171 230 190 152 153 157 162 251 251 247 301 236 230 213 210 216 243 240 209 233 236 233
176 174 184 170 185 191 156 186 133 129 127 135 217 210 158 137 152 248 265 221 165 161 357 435 159 237 237 362 425 392 331 335 358 356 345 325 337 326 311 305 271 253 272
191 185 178 162 186 136 100 218 146 126 131 135 131 134 144 249 281 151 168 308 409 410 423 430 429 400 421 207 426 388 403 429 326 389 399 387 315 321 311 329 259 352 282
176 127 196 162 150 152 204 135 151 154 188 143 169 147 167 250 418 272 407 408 408 222 406 411 423 417 413 324 352 413 347 320 352 346 340 369 324 332 319 358 360 300 214
180 170 195 197 160 129 165 170 226 215 257 262 206 205 420 410 403 399 395 392 392 393 395 400 403 403 402 403 407 406 406 402 392 326 322 321 339 350 353 351 352 343 343
187 200 187 146 214 237 201 232 164 173 358 453 391 429 419 404 394 392 390 386 392 398 395 397 395 400 403 394 396 400 409 399 398 397 406 391 381 407 351 347 340 336 336
113 122 135 205 196 205 262 220 244 451 436 427 421 410 399 394 390 387 385 387 395 398 394 392 402 400 289 400 390 328 316 404 401 392 387 402 374 351 372 376 342 345 336
214 215 212 226 244 227 248 184 440 433 426 415 404 393 385 377 376 326 325 376 379 379 381 374 315 297 311 395 396 384 328 320 306 367 388 388 363 340 322 357 360 315 338
217 223 221 207 236 282 360 436 428 415 396 378 371 369 328 193 381 477 477 479 475 375 361 361 370 387 386 382 383 399 407 318 319 316 312 308 366 363 363 305 335 355 361
228 132 242 217 312 421 433 425 408 388 380 377 459 190 193 205 507 522 524 526 530 533 529 361 361 378 383 368 376 379 416 416 401 378 369 379 361 374 369 363 366 366 301
232 218 295 315 418 428 420 400 387 383 424 280 181 184 217 462 482 494 501 503 507 509 508 392 363 371 371 371 353 387 422 397 397 388 365 376 360 353 358 351 360 364 360

GFSMA_2pvu_pres_015.txt.gz
Presure
207 210 211 218 206 139 134 190 173 173 156 162 163 167 160 153 153 152 161 164 109 137 148 149 143 165 156 164 164 144 162 178 164 162 171 180 161 158 176 167 180 172 186
200 211 185 96 164 149 146 168 173 178 167 159 155 154 157 150 96 142 128 163 164 143 145 159 163 163 165 154 167 167 156 183 169 175 169 181 167 159 151 176 179 181 179
141 205 151 152 146 188 170 187 159 153 156 158 158 159 160 158 136 138 152 134 159 157 153 157 152 160 163 163 164 158 171 170 160 171 168 178 181 161 179 181 189 176 188
201 165 180 161 146 153 150 157 160 160 162 161 166 167 166 153 133 134 160 160 152 146 156 175 159 166 163 162 154 151 170 178 164 156 178 167 185 170 175 181 172 185 184
159 153 150 147 153 161 161 162 165 150 156 131 150 150 127 150 154 153 167 144 155 169 160 152 163 166 164 161 161 163 182 162 167 160 182 166 179 172 181 189 173 189 183
109 164 163 163 166 166 160 156 144 143 137 162 159 148 155 168 155 147 171 174 156 168 150 179 181 159 149 153 128 170 177 180 169 178 182 175 178 172 154 198 171 191 187
172 171 164 159 155 167 130 160 130 145 159 177 163 137 138 139 165 153 159 151 152 153 182 173 167 166 160 152 141 190 167 189 178 170 174 189 180 191 171 200 188 177 196
169 168 166 166 164 166 164 165 171 168 160 139 148 132 164 167 166 167 162 153 158 167 173 168 176 169 175 188 142 135 95 195 192 190 184 192 190 193 197 192 192 181 208
174 165 165 173 158 156 139 177 169 127 155 176 156 146 169 138 156 153 151 156 146 183 168 146 190 188 125 196 188 155 109 194 168 176 179 192 203 202 206 199 188 211 204
164 173 165 157 148 160 165 140 176 148 137 148 168 165 166 157 158 164 187 135 178 138 190 151 178 194 125 187 138 145 135 148 195 210 148 146 152 189 197 163 149 162 150
169 157 178 163 163 181 147 139 137 155 155 161 171 169 163 189 169 194 190 182 111 200 125 177 185 160 204 149 199 201 158 140 207 152 154 152 165 148 145 171 156 176 163
174 170 163 174 177 168 172 173 171 188 177 164 177 162 181 191 170 166 161 159 175 140 128 132 123 189 210 155 166 151 198 201 151 157 204 161 165 155 167 158 221 165 183
175 190 190 189 161 170 182 193 186 174 169 176 188 159 186 170 133 121 136 127 234 153 206 134 137 141 147 235 194 218 208 162 209 162 227 251 221 187 225 184 164 237 238
179 174 167 167 167 189 172 165 170 173 182 194 119 175 213 132 134 125 193 246 130 141 141 138 213 148 148 227 228 228 188 229 227 241 209 236 236 200 249 222 205 185 269
143 164 171 176 189 163 175 144 118 197 131 166 107 204 120 218 230 223 223 224 244 247 255 239 249 163 253 293 291 289 287 289 305 310 297 289 302 372 358 341 315 302 248
169 195 153 176 173 194 180 187 139 139 181 157 163 182 179 194 210 234 241 223 164 179 297 286 320 365 437 434 431 432 430 429 428 437 428 417 401 251 404 352 345 284 323
202 206 202 186 176 193 150 158 171 194 198 135 157 169 199 148 246 236 254 278 273 219 412 414 436 430 421 414 412 412 412 415 415 417 422 445 409 375 369 322 324 312 339
176 171 203 137 185 139 157 202 127 218 210 205 186 210 250 237 251 312 382 441 437 433 433 442 435 419 411 405 403 396 390 396 400 411 413 410 416 411 392 356 367 354 329
198 209 169 159 140 146 205 216 199 213 191 211 240 232 211 303 381 445 438 435 429 420 416 417 421 417 416 409 405 402 396 394 388 391 388 406 400 409 396 322 295 305 327
182 173 138 213 146 198 152 197 213 197 184 232 264 279 291 452 445 436 422 374 395 391 384 381 371 295 297 388 402 401 398 398 402 393 390 386 398 404 405 403 377 348 315
139 209 206 156 189 210 192 207 225 208 227 268 237 436 451 435 417 398 395 393 475 472 275 192 202 482 388 378 373 378 392 398 394 394 382 375 390 403 411 391 403 338 326
180 144 201 197 208 195 213 212 215 215 232 260 453 444 425 407 393 396 464 446 426 182 187 201 430 441 447 466 538 377 375 392 307 292 373 401 387 398 401 408 378 371 364
155 143 208 196 182 215 214 212 217 238 413 450 440 420 398 387 453 431 426 408 391 409 454 487 518 528 533 531 538 551 372 374 320 284 312 406 357 310 366 401 388 376 383
197 204 141 218 217 221 226 234 247 347 447 435 414 393 386 453 420 405 405 391 380 418 451 464 481 489 499 506 515 528 370 367 378 370 382 404 402 324 311 357 388 399 383
206 191 215 204 208 214 225 265 351 448 433 415 341 382 443 426 402 385 393 383 379 416 424 440 455 470 479 484 496 464 364 377 365 364 377 400 402 318 316 306 349 380 329
213 211 206 186 236 217 271 415 444 428 358 328 383 436 422 412 392 385 386 378 391 416 416 419 431 448 466 480 376 365 367 363 370 351 405 418 404 395 380 319 319 306 375

GFSMA_2pvu_pres_018.txt.gz
Presure
232 215 228 222 209 92 186 213 215 202 180 178 190 178 183 162 167 166 156 145 142 152 140 158 145 151 162 152 156 159 170 147 157 162 158 165 148 150 152 162 159 165 171
241 234 233 216 210 213 210 189 149 153 176 163 178 199 166 166 159 158 159 138 149 158 143 151 158 144 150 162 154 176 158 172 163 166 164 156 161 149 163 163 153 156 167
155 159 193 212 222 205 191 159 193 186 154 149 159 136 160 161 162 156 161 165 137 163 133 135 140 167 155 141 161 152 167 148 160 123 74 143 109 152 170 165 160 153 166
171 161 183 104 209 208 154 182 124 151 159 157 159 155 162 143 138 154 148 149 165 138 142 171 135 152 150 155 168 150 178 183 174 171 145 151 141 155 155 178 170 162 179
163 163 103 97 96 122 117 161 160 166 165 163 158 152 147 149 162 145 163 157 151 158 178 178 137 165 155 161 168 149 148 160 163 161 65 159 154 153 153 156 180 157 151
103 99 94 140 108 169 167 164 164 161 160 165 163 165 166 155 143 162 160 156 166 157 141 161 157 146 153 159 158 150 159 181 163 150 66 147 151 148 189 169 185 191 175
102 95 93 163 147 163 172 171 168 163 173 161 146 135 176 132 181 153 145 178 165 154 173 169 166 153 143 155 176 188 125 204 120 198 59 194 196 197 200 197 196 189 177
95 116 159 171 165 179 171 168 170 154 152 147 166 172 179 183 180 156 147 165 159 172 171 164 162 171 182 187 198 165 132 120 116 116 185 122 143 134 135 135 146 199 214
172 174 162 165 144 151 163 154 155 153 169 151 173 172 160 166 158 152 165 159 162 161 176 177 185 185 196 162 120 120 181 126 142 134 155 158 133 133 181 139 135 134 139
170 171 154 139 173 169 161 166 161 180 153 170 158 167 162 182 170 168 168 139 134 181 189 177 195 170 188 196 143 124 185 127 181 159 141 139 153 144 209 137 152 148 135
163 160 165 167 162 178 168 65 140 175 167 150 179 167 188 183 172 190 139 204 71 190 145 139 192 124 146 140 232 150 210 170 183 183 165 144 246 244 181 179 194 230 230
170 152 163 172 145 174 148 177 178 184 193 198 201 169 199 169 173 194 194 147 108 191 139 160 191 199 200 162 160 215 220 208 224 218 229 237 203 235 212 229 225 232 216
169 142 156 178 155 194 182 203 173 162 194 206 208 173 162 169 146 116 188 208 231 188 218 190 207 225 231 188 230 227 225 212 226 195 237 240 244 227 230 233 235 241 232
168 199 144 179 194 195 184 191 185 186 179 194 204 205 158 172 191 195 219 216 193 190 214 210 231 227 227 226 237 246 263 296 307 333 188 293 302 295 292 293 293 277 191
199 187 173 191 183 213 186 168 175 181 199 183 154 156 201 148 187 170 205 223 197 237 244 211 211 248 272 266 479 482 476 469 455 437 433 432 429 420 415 414 361 324 303
157 197 195 205 158 187 182 189 184 190 196 141 191 186 114 152 217 199 215 241 220 235 257 146 266 486 471 458 454 453 453 454 444 430 419 415 417 415 411 407 427 422 380
193 213 139 134 182 184 208 208 184 144 141 217 151 185 170 214 211 212 219 226 235 233 241 384 462 451 265 418 416 407 402 406 418 422 412 408 404 409 404 400 410 429 404
180 103 220 210 220 206 133 168 212 127 196 140 211 215 194 214 215 226 228 238 239 317 452 441 424 407 403 399 399 401 394 384 375 377 396 396 392 394 391 394 405 408 399
222 235 220 221 209 131 161 204 149 212 197 217 130 211 217 232 229 234 238 238 303 439 415 398 422 455 444 436 435 437 465 183 308 355 334 382 392 390 384 380 387 406 418
224 213 210 154 135 186 138 138 187 163 210 218 233 217 220 237 236 258 242 423 429 407 420 453 433 419 409 400 398 290 213 185 223 204 383 367 376 391 388 389 385 386 407
221 220 146 191 144 114 193 217 194 220 190 199 211 228 229 244 244 411 437 420 404 453 445 424 410 395 398 395 436 480 514 537 558 475 583 391 365 382 389 391 395 390 393
134 250 228 144 128 214 209 145 204 218 213 212 206 237 300 425 452 436 413 397 449 431 418 406 395 392 389 419 439 464 491 505 528 532 454 572 375 373 383 391 393 387 391
176 215 173 142 193 201 185 214 195 198 213 211 240 279 448 439 427 412 395 446 419 419 405 387 386 385 408 427 435 452 468 485 505 508 522 559 374 372 380 391 381 383 383
171 144 166 201 213 211 209 215 220 221 229 258 382 452 417 426 404 392 441 436 429 409 382 372 380 398 426 427 432 449 462 474 477 504 528 542 366 371 381 383 294 288 395
204 209 202 192 215 204 202 218 225 230 261 449 449 434 422 400 384 444 433 415 428 387 364 371 387 417 432 428 446 458 464 477 574 539 402 362 365 374 376 366 390 405 403
208 209 203 207 203 200 216 230 232 294 461 413 441 422 397 375 391 429 411 432 417 364 370 378 409 425 433 449 378 364 361 356 351 357 370 370 359 359 373 378 393 406 333

GFSMA_2pvu_pres_024.txt.gz
Presure
178 158 183 169 167 169 262 246 243 221 214 98 142 164 164 197 111 199 170 170 154 152 167 176 180 178 158 149 147 130 149 159 159 159 156 157 144 153 158 165 165 167 158
191 157 171 175 178 172 162 164 168 219 99 101 91 189 203 199 154 154 155 153 154 154 160 160 162 161 157 141 136 160 152 153 162 161 162 167 161 149 156 166 168 167 166
168 176 167 179 154 172 178 170 173 102 102 97 95 218 161 166 160 162 162 161 161 163 165 163 123 162 136 125 159 162 162 163 162 160 145 158 158 162 175 156 161 72 169
199 183 171 177 175 170 132 124 130 164 161 91 144 162 156 157 157 149 167 168 167 167 166 166 166 122 132 139 152 155 159 163 169 177 179 179 160 178 167 159 163 158 66
193 185 168 171 189 121 111 133 157 125 156 165 162 157 156 169 153 157 150 158 176 171 157 154 170 160 153 157 164 170 167 167 176 177 175 169 165 163 163 166 157 133 157
195 145 160 110 108 176 186 183 175 158 163 163 173 177 178 177 179 174 175 177 168 141 149 153 160 163 154 160 175 171 174 174 172 155 165 175 139 142 162 128 166 122 196
104 109 110 169 186 169 168 176 169 177 170 167 168 167 168 134 167 166 171 173 145 150 180 172 145 168 189 182 172 173 116 178 198 179 133 168 200 131 175 145 125 184 199
181 175 148 129 153 135 177 180 142 167 159 156 156 153 138 169 141 158 137 154 176 173 147 152 182 179 181 191 176 206 205 179 153 203 203 179 159 195 138 139 161 199 198
189 185 178 177 188 194 169 159 177 161 171 141 168 147 164 182 134 189 196 179 178 202 201 201 203 202 205 150 204 199 203 179 207 198 145 147 155 214 214 125 130 151 176
205 204 193 194 187 182 181 186 174 185 189 186 198 182 134 134 198 189 184 189 193 181 187 202 205 201 192 189 145 219 182 131 159 158 211 152 144 222 227 237 241 124 125
199 198 199 201 195 186 201 199 195 194 207 198 131 184 187 140 196 186 182 184 189 202 204 204 137 215 216 228 229 122 114 127 158 218 242 244 234 244 199 240 215 223 228
193 193 190 192 193 189 185 187 193 198 201 201 200 193 191 196 182 179 198 233 233 209 229 228 225 209 160 224 227 202 171 229 223 220 209 224 225 226 205 222 205 223 210
183 184 193 194 195 199 185 185 189 188 189 181 169 181 181 173 240 223 241 236 228 218 215 142 227 160 145 233 249 235 230 223 212 214 221 216 221 225 234 241 237 235 236
177 178 180 176 172 173 174 177 171 174 155 182 184 205 158 237 231 226 227 230 232 234 120 251 155 199 153 229 207 218 227 228 188 221 227 238 239 242 246 250 256 259 258
171 182 190 180 189 198 201 199 144 200 210 234 241 235 230 203 220 229 230 228 250 241 208 213 155 194 215 223 217 223 219 232 240 246 254 118 469 467 465 460 455 451 453
197 181 193 195 172 164 202 198 178 213 235 242 228 218 225 197 219 233 235 217 102 126 228 196 71 155 213 197 228 208 236 271 388 461 452 445 439 436 431 423 417 413 406
191 201 192 188 196 187 191 196 221 226 239 217 223 215 216 226 230 173 206 179 211 209 225 223 200 223 152 67 230 452 471 458 444 431 419 410 404 436 456 456 454 454 457
197 211 163 144 194 202 208 213 239 241 187 225 165 218 146 175 206 225 209 207 218 223 225 235 251 271 475 484 471 458 439 423 414 404 455 444 433 436 438 437 429 423 418
194 189 162 199 201 208 225 241 228 214 188 219 221 135 180 168 200 207 213 219 227 235 254 273 488 476 419 451 441 423 409 397 448 435 440 437 429 424 410 402 403 403 402
169 198 201 207 212 241 172 169 231 229 216 196 221 208 225 217 209 218 227 236 257 276 487 450 407 455 433 416 408 438 496 442 425 440 411 381 390 396 398 409 417 419 405
196 208 211 233 224 149 233 239 236 227 138 206 220 219 204 215 218 235 253 267 465 401 388 388 443 419 401 454 495 449 453 424 377 365 387 397 424 437 441 442 449 451 453
204 247 219 127 147 238 227 188 149 204 176 216 202 214 215 230 251 265 480 458 460 447 436 423 405 387 442 427 436 435 409 374 392 422 446 447 453 471 468 482 484 489 493
239 213 179 237 231 240 222 135 217 214 206 209 213 227 247 260 477 476 468 455 445 421 399 388 404 424 440 464 464 439 458 545 558 539 529 501 536 543 522 483 512 504 499
155 241 190 231 219 215 211 211 212 207 214 226 239 249 326 459 465 454 452 443 421 388 371 424 442 468 466 442 455 553 465 433 355 360 356 353 361 401 471 465 464 476 495
229 235 217 216 119 212 199 211 212 218 234 243 303 463 465 458 452 445 434 415 384 367 420 431 425 431 433 430 362 401 342 342 341 344 345 353 359 355 366 450 471 500 505
217 215 208 150 204 207 205 213 229 242 254 325 472 461 452 442 434 413 392 374 478 425 441 464 421 415 357 400 341 336 330 328 333 337 339 343 348 354 357 353 371 482 509

GFSMA_2pvu_pres_030.txt.gz
Presure
181 158 207 255 178 221 196 185 203 195 189 188 166 167 174 181 162 170 179 168 103 93 125 171 170 163 189 189 157 151 148 154 154 164 165 180 170 171 167 164 164 125 164
176 195 214 211 225 126 211 208 206 199 192 189 179 176 167 169 175 145 137 161 135 177 155 151 145 146 152 157 154 161 167 171 160 159 162 163 165 169 166 164 127 167 167
124 135 227 229 210 214 209 209 162 198 188 194 183 176 124 115 118 123 176 174 170 166 174 171 155 164 163 217 163 164 168 169 169 170 171 174 171 157 157 165 166 169 169
176 124 206 157 203 149 208 107 116 106 115 121 106 107 107 130 106 158 158 159 129 181 124 170 166 170 173 171 171 150 175 177 175 169 138 142 143 174 172 175 164 153 171
159 171 163 96 201 140 205 201 195 108 127 189 176 185 195 179 161 171 174 167 153 153 145 151 159 162 154 163 160 156 163 145 164 140 173 172 170 167 152 149 164 168 169
128 229 221 211 193 216 210 203 198 196 202 127 143 133 194 203 188 185 192 184 183 175 174 164 167 185 187 176 172 173 170 163 144 162 172 178 180 148 168 179 181 180 178
195 210 222 219 215 209 205 203 201 200 200 204 209 132 203 203 204 205 204 203 203 201 199 217 194 195 199 202 204 205 206 209 210 194 195 210 213 213 210 204 202 204 203
209 192 196 205 206 196 196 194 192 193 194 193 192 192 185 185 183 189 192 193 193 193 193 191 188 186 185 187 191 192 194 193 185 187 199 194 205 203 199 191 191 202 214
191 193 189 165 187 185 186 180 186 177 180 174 181 188 178 180 180 176 178 184 175 192 192 192 194 193 194 203 208 211 193 203 195 202 206 209 210 207 205 205 197 202 195
180 186 182 181 183 170 183 178 185 184 189 177 189 181 175 180 192 188 184 185 183 183 187 189 195 189 200 209 205 207 206 206 205 205 206 208 213 215 217 214 210 146 158
180 184 182 176 177 181 172 179 181 179 177 162 174 175 185 192 187 185 187 182 182 198 200 200 194 195 198 200 203 206 209 214 217 219 244 249 245 248 252 248 254 256 254
183 178 187 178 174 180 173 183 170 177 181 177 171 183 178 189 192 190 202 213 218 198 193 194 195 195 204 206 212 215 233 262 262 235 196 183 249 247 242 243 213 246 246
185 173 191 185 183 187 178 167 184 180 182 185 180 197 188 192 241 231 214 201 195 193 192 213 240 261 269 272 261 253 247 244 186 224 243 235 183 242 241 241 246 254 230
183 188 176 186 181 186 176 179 176 186 192 174 193 203 246 243 210 193 187 261 273 270 265 262 159 248 222 253 146 253 240 233 229 230 233 236 237 233 231 229 226 232 226
187 196 173 175 167 176 173 172 195 176 184 209 215 242 240 196 159 237 261 242 147 239 139 157 253 225 159 204 228 225 223 223 223 224 226 226 223 225 232 232 239 189 244
181 173 176 167 188 192 173 202 190 196 259 256 242 187 220 227 254 249 134 212 153 191 237 220 218 214 61 175 218 220 223 226 229 232 241 172 210 353 352 353 284 358 485
174 176 176 193 200 203 194 195 212 261 249 236 224 225 251 253 226 207 189 194 233 206 225 221 199 184 149 210 198 175 270 129 498 490 481 189 472 477 471 470 466 464 461
180 191 200 196 177 194 211 244 260 230 228 218 249 251 232 144 151 229 234 218 219 162 223 221 217 161 237 283 497 502 491 481 478 468 369 448 445 436 434 434 431 429 431
195 182 179 195 205 212 203 250 236 211 230 250 220 247 142 164 232 221 216 208 217 217 228 239 334 505 494 484 479 465 455 446 437 428 415 410 409 422 498 507 475 465 460
184 193 197 207 186 139 158 227 216 256 245 245 147 186 228 219 219 218 223 218 235 267 460 487 478 469 462 449 434 420 403 389 386 379 419 456 454 458 458 463 469 474 472
194 197 205 262 207 230 218 250 251 158 137 143 201 214 215 210 220 219 234 286 499 487 529 580 580 567 545 536 526 515 484 462 486 468 449 448 450 457 536 537 537 547 560
198 203 256 228 227 223 249 248 154 134 142 209 214 208 214 217 227 288 425 484 474 578 553 527 514 499 484 466 447 438 433 427 424 421 440 363 363 359 358 354 355 363 366
210 250 231 217 258 251 221 126 139 207 206 212 220 222 224 261 311 503 477 521 533 505 485 471 458 440 431 427 414 411 406 380 352 351 355 331 351 346 345 345 353 356 361
149 231 242 253 224 272 177 186 207 197 208 216 224 241 278 404 488 476 526 519 492 457 435 426 431 419 418 423 357 341 334 336 334 332 328 336 361 359 358 358 351 350 356
211 253 238 265 208 214 174 193 196 202 216 220 255 294 338 480 515 517 506 478 434 421 439 413 413 362 337 331 333 323 319 337 342 336 337 333 350 413 416 377 359 363 359
153 135 265 215 171 198 201 201 213 224 234 254 304 321 471 508 506 487 459 428 442 396 396 403 337 335 325 322 329 329 337 344 343 345 352 357 354 373 403 421 388 359 354

GFSMA_2pvu_pres_033.txt.gz
Presure
97 104 176 131 182 165 129 203 242 229 222 217 163 209 204 194 198 188 179 166 173 166 170 115 121 142 144 138 152 146 152 148 157 201 208 196 194 215 201 184 157 159 172
100 97 97 124 158 203 168 133 197 228 220 211 171 164 137 138 188 173 172 171 131 101 122 125 138 166 168 181 177 168 173 192 219 195 155 208 188 164 164 160 161 161 162
95 93 100 102 111 197 201 234 209 220 139 137 142 202 191 111 128 134 185 192 191 181 175 162 171 169 167 132 162 162 164 124 163 165 164 153 150 170 165 168 172 178 178
162 90 170 111 125 124 229 184 221 210 164 197 206 202 196 195 195 128 193 135 144 135 195 195 191 186 180 182 168 167 165 163 165 164 167 167 159 168 171 144 163 158 139
101 138 180 196 195 195 207 222 220 218 213 212 210 207 210 211 207 207 212 210 164 148 205 206 208 206 203 202 194 188 185 181 178 181 185 183 181 178 175 175 162 148 150
175 109 193 202 189 157 215 205 208 200 198 194 196 195 192 189 188 193 191 189 185 185 185 187 186 186 186 194 194 196 197 199 199 196 194 196 200 205 206 202 197 192 193
118 186 201 199 198 193 199 194 186 185 191 184 184 182 191 183 182 186 184 189 187 175 174 174 187 180 183 186 184 185 189 188 185 184 183 182 185 186 187 192 194 196 197
184 199 198 208 184 188 193 191 192 185 197 180 178 163 173 174 171 176 169 189 181 190 189 184 191 186 192 193 190 181 168 192 198 192 189 200 190 192 201 207 202 197 195
202 193 201 199 190 193 174 185 180 180 180 179 180 172 176 164 179 180 178 175 169 176 179 188 202 198 190 190 200 205 210 203 201 210 210 202 205 199 201 202 197 199 206
191 201 199 186 190 182 186 178 178 185 178 165 181 180 180 175 171 167 181 182 188 187 190 191 191 194 195 204 218 222 219 220 225 225 209 205 207 206 207 206 203 206 219
178 195 187 192 191 186 176 182 185 188 186 182 183 186 169 172 176 162 164 177 196 190 185 195 202 209 257 230 235 230 222 220 207 212 215 214 217 217 216 216 216 220 147
200 192 192 193 184 181 189 191 191 182 173 186 171 173 195 179 186 173 171 173 163 179 251 230 237 235 216 157 134 223 232 231 234 236 265 221 254 128 131 175 174 175 175
190 190 191 191 191 129 192 186 177 178 180 170 173 169 194 177 188 206 205 241 256 244 225 206 194 219 259 210 254 190 247 255 232 226 184 260 259 257 256 256 255 254 255
188 181 184 183 182 173 176 177 173 178 173 185 203 200 200 193 193 272 201 239 203 264 260 249 241 244 258 169 151 217 243 235 231 230 233 236 236 236 237 236 234 232 232
191 187 190 185 172 175 167 177 174 186 198 194 185 202 260 274 251 236 233 268 267 250 247 278 139 148 230 226 224 224 225 214 225 222 222 224 225 228 228 227 227 217 223
190 188 182 183 184 183 176 181 188 185 182 205 214 199 257 235 238 261 254 240 284 246 226 170 198 79 201 217 222 225 186 240 184 246 251 254 253 255 256 259 262 117 178
182 181 184 183 183 182 184 181 186 199 202 214 267 231 144 262 254 233 264 185 145 199 189 185 231 168 233 240 257 63 520 512 505 496 487 481 477 477 479 481 485 120 483
189 188 181 188 181 179 185 192 196 205 223 263 226 258 261 243 269 137 145 144 213 220 230 236 238 268 349 564 593 619 597 582 572 554 562 575 586 449 437 433 433 73 433
182 191 184 178 182 189 193 194 207 215 260 211 262 251 247 215 136 153 164 211 230 230 239 285 343 527 561 544 537 530 524 518 511 502 500 510 509 507 501 489 419 422 474
183 176 182 188 188 191 196 207 230 254 220 258 207 237 157 181 211 217 230 236 241 274 321 424 539 538 517 498 473 459 452 444 444 438 449 457 461 485 505 491 465 453 454
180 187 188 186 193 184 205 240 203 248 257 209 217 218 205 209 223 233 235 259 284 331 510 529 511 487 457 441 434 423 423 423 414 428 438 430 414 388 385 400 398 381 369
189 181 177 141 199 212 256 218 262 137 179 213 182 164 212 226 230 241 267 314 324 518 507 490 458 448 422 418 422 434 376 367 351 363 344 343 349 341 345 340 341 341 341
147 192 180 203 227 252 221 216 238 223 206 176 209 212 225 229 248 279 326 383 519 487 462 447 452 412 429 366 348 343 344 343 337 327 328 338 343 352 358 362 412 416 354
155 197 208 243 226 196 195 243 210 182 183 203 216 224 234 257 308 331 453 521 478 439 442 412 408 438 355 329 331 320 319 335 353 354 338 343 352 359 370 353 389 416 419
204 225 258 215 180 152 233 202 163 198 199 216 218 237 267 314 328 501 511 478 433 436 397 409 428 337 346 324 333 336 329 327 332 340 335 347 345 346 360 387 375 394 412
252 210 140 210 287 209 182 191 198 199 210 217 241 267 309 324 510 496 470 436 415 386 405 403 351 342 342 335 323 324 313 318 321 338 361 336 345 353 362 378 375 381 406

GFSMA_2pvu_pres_036.txt.gz
Presure
93 90 94 93 124 94 113 134 105 106 163 179 194 240 209 218 158 165 145 164 161 179 193 165 194 126 183 181 131 124 150 168 210 166 187 205 175 172 180 175 176 163 162
86 89 101 100 106 92 167 146 175 183 156 203 244 233 219 218 213 207 158 200 195 199 165 118 148 187 153 198 192 181 178 169 175 173 167 142 172 172 136 210 188 169 170
130 103 90 90 98 100 175 181 181 171 188 200 196 231 226 216 225 223 210 212 212 214 213 213 216 177 150 131 212 145 195 194 189 182 181 179 176 166 162 161 166 166 172
104 116 88 91 99 89 189 128 189 190 202 195 216 219 215 209 198 195 196 195 194 189 192 192 189 187 199 199 185 185 192 197 202 205 205 189 189 177 179 179 180 169 163
95 100 95 116 102 90 174 133 190 198 199 169 203 199 187 191 191 191 186 189 191 189 188 191 187 185 184 184 182 180 184 181 184 185 184 189 194 201 203 201 199 199 186
89 102 94 126 184 187 194 195 194 201 188 194 189 187 191 183 188 186 191 183 180 179 184 179 174 174 175 190 191 190 169 171 176 189 182 182 185 184 185 186 192 194 196
88 89 105 189 186 201 139 144 202 192 191 198 199 191 173 178 180 184 183 185 177 182 183 184 186 182 180 175 178 183 184 183 183 189 191 189 191 180 178 176 201 183 191
120 105 172 157 201 190 103 199 192 194 194 188 188 182 183 179 188 185 185 180 192 180 185 185 179 192 192 195 189 189 187 198 194 192 194 201 201 196 199 203 184 185 210
100 197 203 199 144 110 122 192 196 195 189 180 193 189 176 189 185 190 189 191 189 185 174 185 191 187 191 178 176 194 189 182 185 196 244 231 217 215 221 224 221 225 218
107 103 127 159 111 111 191 195 197 184 192 194 178 181 193 189 168 177 178 171 177 178 175 192 199 202 173 203 200 202 200 260 253 252 253 253 258 263 262 248 212 237 235
105 201 197 108 117 188 196 198 198 187 189 186 192 193 188 180 181 170 164 168 173 156 199 193 190 194 252 244 239 242 239 236 235 228 219 209 161 227 220 218 217 217 216
203 203 105 186 194 195 195 189 193 189 193 170 189 184 183 177 178 172 175 196 188 182 191 265 243 230 233 241 255 257 258 258 256 191 163 254 255 256 201 206 265 268 271
196 186 204 193 192 197 192 188 194 187 153 188 184 181 177 171 178 191 192 194 212 250 257 226 243 250 256 253 268 268 258 267 243 195 234 231 234 238 242 245 250 259 270
191 202 192 193 195 196 186 194 186 188 188 187 187 187 189 187 191 198 208 221 272 245 188 264 252 245 248 257 247 149 218 93 214 215 217 219 225 228 228 229 231 236 240
199 193 194 200 194 200 197 194 196 186 191 186 194 188 185 193 200 210 223 266 241 243 265 223 256 236 212 143 152 156 207 239 244 242 242 244 265 271 314 312 307 261 233
195 194 193 108 200 201 196 195 188 189 197 188 185 195 196 200 213 226 268 222 270 284 263 179 141 157 216 209 216 252 262 305 368 453 565 551 557 566 581 590 587 565 531
201 200 200 203 207 196 191 190 188 191 182 190 197 196 201 213 232 260 239 281 266 241 134 203 213 146 240 251 65 336 214 559 544 513 492 493 495 505 520 533 546 564 586
202 201 198 199 192 190 182 196 182 181 193 193 202 199 211 253 224 268 147 228 230 194 218 181 228 248 266 325 340 550 525 482 470 458 387 472 465 462 462 466 476 489 518
199 203 201 192 185 182 184 173 188 193 197 201 197 224 259 230 241 234 231 207 173 179 233 250 266 295 339 532 521 474 466 450 437 439 455 458 466 461 459 444 451 445 452
202 197 178 182 183 173 185 191 192 200 200 211 233 233 200 271 224 220 181 188 225 238 253 280 323 382 521 476 463 440 438 449 461 402 357 354 355 350 353 355 361 373 399
193 190 182 183 178 185 182 176 198 200 218 187 223 279 265 228 212 199 218 230 239 254 291 349 533 495 466 433 426 454 424 357 343 340 334 337 354 341 351 350 346 338 341
183 185 182 186 174 188 157 197 207 225 264 192 291 231 212 172 208 221 224 239 274 320 514 517 473 456 417 455 404 358 339 341 323 351 346 343 357 352 362 362 363 362 348
186 184 184 142 192 194 191 219 250 211 231 274 225 207 191 209 225 232 245 275 354 500 517 460 440 418 442 377 365 347 343 347 345 340 325 329 345 359 348 358 356 364 370
187 127 173 193 200 205 210 197 222 286 225 199 173 198 210 222 229 255 299 510 496 470 452 417 406 422 371 352 332 325 306 324 331 345 342 344 354 342 344 350 364 364 384
188 194 194 204 156 240 143 169 249 222 193 194 188 211 218 231 265 326 485 513 457 429 401 383 427 371 348 328 314 320 313 313 307 315 335 342 342 334 355 358 360 363 378
191 206 210 172 140 144 145 190 207 198 185 203 207 219 237 265 349 524 513 460 412 385 374 404 370 346 330 308 306 310 306 298 304 300 306 334 338 335 367 372 381 385 395

GFSMA_2pvu_pres_039.txt.gz
Presure
76 87 81 97 88 104 117 97 101 99 107 148 189 180 186 187 195 206 202 234 227 226 220 214 212 195 211 216 216 214 201 183 190 197 187 184 161 177 168 164 161 155 177
88 100 92 110 105 99 90 89 92 172 181 111 119 178 189 180 186 204 165 227 214 206 209 206 202 197 194 194 195 196 197 197 199 203 176 195 188 188 183 187 181 179 196
94 85 114 93 90 100 84 88 93 106 176 178 177 186 189 193 193 203 191 194 172 182 193 192 189 186 186 187 190 186 182 177 181 194 196 195 194 197 201 200 190 175 175
115 114 113 115 110 96 91 91 101 173 177 181 182 187 191 194 205 194 183 184 184 196 196 177 186 185 185 185 175 177 182 182 185 184 183 176 173 177 179 182 185 195 199
116 121 113 106 101 88 96 110 117 126 183 184 105 197 194 202 196 196 193 195 196 188 177 191 190 194 181 181 169 177 172 179 173 189 192 181 175 179 181 177 176 177 182
119 107 91 105 96 83 115 111 123 132 150 103 125 195 195 195 194 197 187 191 191 184 190 178 195 199 193 188 189 193 183 186 187 186 197 173 170 174 190 170 171 171 173
102 96 113 93 115 106 94 112 105 198 140 105 192 200 196 194 203 197 190 196 165 194 184 193 195 184 187 192 189 188 191 191 175 194 196 201 193 190 188 189 192 200 194
99 92 91 87 85 115 111 105 115 126 200 144 201 192 190 199 195 196 190 198 178 188 193 196 183 185 184 176 180 182 183 181 204 206 206 206 180 204 204 202 206 204 212
101 103 84 108 113 151 110 107 200 111 199 197 151 184 195 199 195 151 196 195 197 195 192 192 186 176 174 173 182 196 200 198 221 268 254 246 246 248 250 259 266 270 266
102 83 198 140 120 106 161 195 202 202 194 201 189 194 198 193 188 187 187 187 189 192 185 189 179 180 183 188 202 205 216 271 256 243 231 266 265 262 234 256 227 234 241
190 182 190 188 203 109 144 205 201 199 191 196 193 198 198 190 190 190 183 186 188 183 177 173 189 192 193 202 212 225 255 244 224 267 267 262 265 276 277 277 277 274 269
172 184 200 211 143 175 200 205 190 203 199 166 194 194 191 189 196 188 184 182 183 178 176 186 183 195 203 214 240 257 237 268 273 281 277 263 233 207 196 190 140 173 129
175 182 181 191 185 180 207 188 203 200 193 197 199 194 199 201 193 201 183 181 186 184 181 183 193 201 215 266 235 272 285 277 246 176 132 175 178 149 184 210 211 216 218
176 182 174 189 184 182 187 201 202 193 197 198 198 202 207 196 195 190 189 190 178 191 197 205 205 263 245 272 286 246 231 206 196 188 206 211 222 233 243 250 253 257 260
188 184 178 179 183 177 190 200 202 200 198 196 203 208 197 191 182 191 181 185 202 208 202 233 265 245 261 154 234 202 202 197 182 194 242 255 277 352 367 396 384 554 551
181 179 176 184 178 187 202 200 202 200 201 208 202 198 180 187 184 185 197 203 210 227 268 183 127 248 238 71 208 202 176 186 255 283 439 548 535 522 517 505 492 489 490
177 188 182 180 184 183 203 204 203 202 207 195 181 182 190 185 195 201 209 217 238 259 263 257 215 185 214 170 229 246 166 468 538 311 497 482 481 481 481 480 483 480 469
178 183 177 181 180 198 203 204 204 206 182 186 187 189 189 200 202 211 227 270 235 286 237 197 160 216 220 237 250 404 543 502 479 86 459 484 423 402 374 370 368 366 369
185 172 180 181 193 200 203 208 202 186 185 193 140 137 199 207 210 238 260 277 239 218 176 216 222 223 241 288 586 499 471 444 440 468 417 364 364 358 344 346 341 344 353
176 182 180 188 201 205 204 195 187 192 188 192 197 199 211 225 270 250 273 224 225 195 221 221 239 257 540 500 469 444 439 451 407 365 344 337 345 345 349 359 355 363 356
181 182 188 200 204 200 189 192 187 146 195 199 200 214 239 203 260 240 221 215 202 225 231 242 309 522 484 438 423 454 408 379 368 361 341 334 350 352 359 365 376 363 359
181 188 198 203 193 191 188 184 186 191 198 159 223 264 145 192 210 225 211 215 226 228 246 515 516 474 423 404 426 377 369 351 337 342 327 333 332 321 354 351 348 345 344
190 197 201 188 189 187 189 193 199 201 179 219 251 140 157 224 207 216 209 226 233 255 533 507 463 412 389 423 377 353 335 333 326 329 316 314 308 320 328 351 351 372 377
196 192 184 188 184 192 188 198 212 233 168 136 141 158 221 211 210 216 225 237 267 533 497 451 403 397 421 386 352 333 318 311 315 318 305 300 300 304 324 345 389 384 383
189 188 142 184 190 197 208 224 166 222 145 141 162 211 197 211 217 227 238 423 541 489 440 393 418 421 341 360 334 312 305 322 304 307 307 301 300 306 309 334 395 384 396
180 185 191 193 201 213 239 251 225 255 144 201 204 210 209 217 228 243 341 547 487 429 384 385 361 340 347 332 325 330 327 317 302 296 302 294 297 295 301 333 384 372 380

GFSMA_2pvu_pres_042.txt.gz
Presure
87 79 81 89 93 92 89 114 102 87 89 88 85 105 101 178 91 151 176 174 180 185 200 205 196 198 183 201 192 197 198 198 194 193 193 193 193 194 195 188 208 192 161
91 90 86 84 86 86 110 102 92 97 121 90 87 105 132 183 180 146 156 185 181 184 193 205 196 199 183 179 180 191 194 192 195 200 197 200 191 188 190 204 200 196 192
87 189 83 79 93 107 108 114 115 128 93 91 91 115 143 119 111 179 183 162 188 195 196 195 195 188 183 185 197 193 175 178 178 183 176 182 179 181 179 181 184 183 183
197 198 200 187 135 134 156 111 109 86 84 84 115 111 112 123 130 111 108 125 183 192 199 195 202 187 186 197 190 182 177 178 188 194 196 194 192 175 185 178 169 170 176
168 230 234 213 84 113 113 89 101 91 86 111 109 106 109 115 109 191 128 188 195 198 188 195 197 193 185 187 193 193 193 181 201 197 189 188 182 177 182 182 175 168 191
111 147 126 122 125 104 130 85 113 108 99 110 111 100 110 198 170 192 189 196 201 191 190 196 196 195 191 199 196 188 193 198 199 188 186 192 192 185 190 191 188 190 189
140 102 123 128 90 213 105 96 84 113 91 106 109 102 110 180 183 214 192 200 191 188 192 202 200 187 197 192 197 199 197 192 199 187 187 174 175 179 187 194 205 203 198
176 196 101 186 91 100 107 84 92 90 100 143 106 103 160 197 195 190 200 196 197 192 197 200 186 195 188 188 192 194 194 190 182 185 184 189 193 198 202 207 214 262 267
115 187 109 105 108 84 153 91 121 163 204 201 198 201 200 201 202 197 197 193 197 196 199 198 189 196 201 192 193 189 190 190 187 193 192 193 199 206 212 274 257 233 249
89 98 103 104 174 89 115 193 182 189 185 185 185 177 202 207 199 190 204 199 197 201 199 199 200 203 201 207 188 187 193 199 186 191 200 208 211 273 252 259 273 275 275
98 175 179 127 182 96 167 175 197 210 191 184 180 177 207 180 196 207 193 194 199 200 198 199 205 207 200 193 189 200 193 193 198 207 217 276 257 235 294 289 231 232 233
159 127 132 179 134 180 180 181 201 177 186 189 181 179 183 196 205 201 196 188 191 196 201 205 201 184 188 192 193 191 195 207 218 250 273 234 291 232 241 226 209 206 206
146 189 180 173 170 187 185 178 180 180 173 186 183 176 199 202 201 202 199 198 197 201 200 193 174 183 188 191 199 206 213 234 200 203 224 264 224 163 210 213 210 212 159
195 195 192 187 188 172 182 188 174 187 173 186 183 188 189 199 201 203 201 202 206 205 182 172 185 182 191 198 203 218 297 242 269 256 215 198 187 213 221 225 234 249 252
195 192 96 194 187 185 188 188 182 179 187 185 186 183 198 207 205 204 206 207 186 185 186 180 192 200 206 226 282 269 269 256 206 184 183 187 213 223 250 267 413 545 538
202 189 192 195 189 186 185 184 174 184 178 186 183 194 199 204 205 212 194 185 169 187 191 192 204 233 302 257 269 259 218 191 197 191 226 249 370 530 512 491 479 474 479
200 198 187 184 185 181 181 189 183 184 185 184 189 199 204 210 206 191 191 151 193 199 205 213 268 230 266 255 230 202 183 211 232 255 430 497 479 480 485 454 438 425 418
203 195 192 187 185 181 185 183 184 184 185 189 198 205 210 195 193 187 171 196 205 138 240 139 275 254 225 239 215 222 233 252 333 474 454 470 468 412 391 381 374 369 357
204 198 194 192 185 183 182 182 184 184 186 195 203 208 192 185 189 195 190 142 137 194 152 171 238 231 180 216 225 241 299 476 445 436 467 418 384 369 354 351 344 339 341
206 203 195 193 188 181 182 182 182 180 193 204 200 193 186 169 195 193 127 133 141 149 194 228 223 205 224 230 253 499 457 421 441 420 400 367 354 353 344 350 336 326 338
209 206 200 192 185 184 183 180 182 191 204 188 193 188 188 197 211 237 131 139 230 222 242 174 222 224 239 262 475 431 415 435 394 393 358 332 349 333 333 324 317 322 323
208 204 201 191 189 183 176 183 190 199 193 184 148 191 202 215 130 135 134 216 240 215 221 226 235 248 513 458 418 396 398 391 361 362 343 319 341 318 319 314 311 309 307
206 201 195 186 181 178 182 192 195 185 190 190 197 212 236 127 182 266 191 229 212 216 226 239 252 502 444 408 430 417 398 364 350 340 325 310 323 315 322 308 308 303 303
202 196 184 176 183 185 194 192 192 192 192 201 216 245 233 292 207 209 214 186 216 227 238 381 490 443 402 384 390 387 352 331 327 328 318 313 317 313 316 306 299 304 301
187 177 186 182 192 194 185 191 154 195 208 232 226 243 215 197 226 216 214 216 226 241 412 474 424 389 387 358 343 341 330 327 324 318 322 315 316 305 307 307 298 304 296
186 183 187 192 183 189 191 193 204 216 233 217 280 168 217 213 170 216 221 231 243 496 446 397 376 364 372 348 327 318 307 293 293 288 312 311 319 309 308 317 309 304 317